This is the latest recevied weather packets stored in our database for station/object M7PDA-1. If no packets are shown the sender has not sent any weather packets the latest 10 day(s).
| Time | Temp. | Humidity | Pressure | Rain* | Wind** | Luminosity | Snow |
|---|---|---|---|---|---|---|---|
| 1787661667 | 20° C | 51% | 1016.8 hPa | - | - | - | - |
| 1787660766 | 20.56° C | 51% | 1016.8 hPa | - | - | - | - |
| 1787659865 | 21.11° C | 51% | 1016.9 hPa | - | - | - | - |
| 1787658964 | 19.44° C | 53% | 1017.1 hPa | - | - | - | - |
| 1787658064 | 19.44° C | 53% | 1017.2 hPa | - | - | - | - |
| 1787657163 | 18.89° C | 54% | 1017.3 hPa | - | - | - | - |
| 1787656262 | 18.33° C | 55% | 1017.5 hPa | - | - | - | - |
| 1787655361 | 17.78° C | 56% | 1017.6 hPa | - | - | - | - |
| 1787654460 | 17.78° C | 56% | 1017.8 hPa | - | - | - | - |
| 1787653560 | 17.78° C | 56% | 1017.8 hPa | - | - | - | - |
| 1787652659 | 17.22° C | 58% | 1018 hPa | - | - | - | - |
| 1787651758 | 17.22° C | 58% | 1018.2 hPa | - | - | - | - |
| 1787650857 | 16.67° C | 59% | 1018.5 hPa | - | - | - | - |
| 1787649957 | 16.67° C | 59% | 1018.5 hPa | - | - | - | - |
| 1787649055 | 16.67° C | 60% | 1018.7 hPa | - | - | - | - |
| 1787648154 | 16.11° C | 61% | 1018.8 hPa | - | - | - | - |
| 1787647254 | 16.11° C | 61% | 1018.9 hPa | - | - | - | - |
| 1787646353 | 15.56° C | 62% | 1018.8 hPa | - | - | - | - |
| 1787645452 | 15.56° C | 62% | 1018.9 hPa | - | - | - | - |
| 1787644551 | 15.56° C | 63% | 1019.2 hPa | - | - | - | - |
| 1787643650 | 15° C | 63% | 1019.2 hPa | - | - | - | - |
| 1787642750 | 15° C | 64% | 1019.4 hPa | - | - | - | - |
| 1787641849 | 14.44° C | 64% | 1019.3 hPa | - | - | - | - |
| 1787640948 | 14.44° C | 64% | 1019.4 hPa | - | - | - | - |
| 1787640047 | 14.44° C | 65% | 1019.4 hPa | - | - | - | - |
* Rain since midnight (hover to see other rain measurements)
** Current wind speed in m/s (hover to see current wind gust speed)